Location: Treviso
(45.6669°N, 12.2430°E)
Time: 15:38:37
(UTC+02:00)

ISS - Pass Details

Date: 24 May 2018
Orbit: 402 x 407 km, 51.6° (Epoch: 27 May)

Event Time Altitude Azimuth Distance (km) Brightness Sun altitude
Rises 02:57:01 0° 297° (WNW) 2,320 0.0 -19.1°
Reaches altitude 10° 02:59:06 10° 295° (WNW) 1,458 -1.0 -19.0°
Enters shadow 03:00:15 20° 292° (WNW) 1,000 -1.9 -18.9°
Exits shadow 03:07:28 - 127° (SE) 2,229 -0.1 -18.3°
Sets 03:07:32 0° 127° (SE) 2,257 -0.1 -18.3°
